This is the latest recevied weather packets stored in our database for station/object KM8V-8. If no packets are shown the sender has not sent any weather packets the latest 1 day(s).
| Time | Temp. | Humidity | Pressure | Rain* | Wind** | Luminosity | Snow |
|---|---|---|---|---|---|---|---|
| 1778058324 | 7.22° C | 100% | 1008.6 hPa | 0.51 mm | - | 0 W/m² | - |
| 1778057724 | 7.22° C | 100% | 1008.5 hPa | 1.02 mm | - | 0 W/m² | - |
| 1778057419 | 7.22° C | 100% | 1008.4 hPa | 1.02 mm | - | 0 W/m² | - |
| 1778056824 | 7.22° C | 99% | 1008.3 hPa | 1.02 mm | - | 0 W/m² | - |
| 1778056524 | 7.78° C | 99% | 1008.3 hPa | 1.27 mm | - | 0 W/m² | - |
| 1778055924 | 7.78° C | 100% | 1008.2 hPa | 1.27 mm | - | 0 W/m² | - |
| 1778055624 | 7.78° C | 100% | 1008.4 hPa | 1.52 mm | - | 0 W/m² | - |
| 1778055320 | 7.78° C | 100% | 1008.5 hPa | 1.78 mm | - | 0 W/m² | - |
| 1778055020 | 7.78° C | 100% | 1008.4 hPa | 1.78 mm | - | 0 W/m² | - |
| 1778053525 | 8.33° C | 100% | 1008.5 hPa | 1.27 mm | - | 0 W/m² | - |
| 1778053225 | 8.33° C | 100% | 1008.5 hPa | 1.27 mm | - | 0 W/m² | - |
| 1778052925 | 7.78° C | 100% | 1008.4 hPa | 1.27 mm | - | 0 W/m² | - |
| 1778052625 | 7.78° C | 100% | 1008.3 hPa | 1.27 mm | - | 0 W/m² | - |
| 1778051725 | 7.78° C | 100% | 1008.3 hPa | 0.51 mm | - | 0 W/m² | - |
| 1778051425 | 7.78° C | 99% | 1008.3 hPa | 0.51 mm | - | 0 W/m² | - |
| 1778050526 | 7.78° C | 99% | 1008.2 hPa | 0.25 mm | - | 0 W/m² | - |
| 1778050226 | 7.78° C | 99% | 1008.3 hPa | 0.25 mm | - | 0 W/m² | - |
| 1778049926 | 7.78° C | 99% | 1008.3 hPa | 0.25 mm | - | 0 W/m² | - |
| 1778049026 | 7.78° C | 99% | 1008.2 hPa | 0.25 mm | - | 0 W/m² | - |
| 1778048726 | 7.78° C | 99% | 1008.4 hPa | 0.25 mm | - | 0 W/m² | - |
| 1778047227 | 7.78° C | 99% | 1008.5 hPa | 0.51 mm | - | 0 W/m² | - |
| 1778046927 | 7.78° C | 99% | 1008.6 hPa | 0.51 mm | - | 0 W/m² | - |
| 1778046627 | 7.78° C | 99% | 1008.5 hPa | 0.76 mm | - | 0 W/m² | - |
| 1778046327 | 7.78° C | 99% | 1008.5 hPa | 0.76 mm | - | 0 W/m² | - |
| 1778046027 | 7.78° C | 99% | 1008.5 hPa | 0.76 mm | - | 0 W/m² | - |
* Rain latest hour (hover to see other rain measurements)
** Current wind speed in m/s (hover to see current wind gust speed)